Home   Weather   Ceuta   Past weeks

Flag for Spain Past Weather in Ceuta, Ceuta, Spain — Yesterday and Last 2 Weeks

Now
59 °F

Passing clouds.


Feels Like: 57 °F
Forecast: 59 / 69 °F
Wind: 12 mph from Southeast

Location: Gibraltar Airport

Current Time: Apr 25, 2017 at 1:12:37 am

Latest Report: Apr 24, 2017 at 11:50 pm


Visibility: N/A

Pressure: 29.98 "Hg

Humidity: 100%

Dew Point: 59 °F

Location of CeutaLocation

Past Weather in Ceuta — Graph

°F

Ceuta Temperature Yesterday

Maximum temperature yesterday: 64 °F (at 12:50 pm)
Minimum temperature yesterday: 59 °F (at 12:50 am)
Average temperature yesterday: 61 °F

High & Low Weather Summary for the Past Weeks

 TemperatureHumidityPressure
High75 °F (Apr 13, 4:50 pm)100% (Apr 16, 8:50 am)30.24 "Hg (Apr 16, 8:50 am)
Low57 °F (Apr 12, 6:50 am)38% (Apr 12, 5:50 pm)29.86 "Hg (Apr 18, 5:50 pm)
Average63 °F78%30.07 "Hg
* Reported Apr 9 11:50 pm — Apr 24 11:50 pm, Ceuta, Weather by CustomWeather, © 2017

Note: Actual official high and low records may vary slightly from our data, if they occured in-between our weather recording intervals... More about our weather records

Advertising

Ceuta Weather History for the Previous 24 Hours

Scroll right to see more
 ConditionsComfort  
Time TempWeatherWind HumidityBarometerVisibility
11:50 pm
Mon, Apr 24
59 °FPassing clouds.12 mph100%29.98 "HgN/A
10:50 pm61 °FPassing clouds.12 mph94%29.98 "HgN/A
9:50 pm61 °FPassing clouds.12 mph94%29.95 "HgN/A
8:50 pm63 °FScattered clouds.9 mph88%29.95 "HgN/A
7:50 pm63 °FScattered clouds.10 mph88%29.95 "HgN/A
6:50 pm64 °FScattered clouds.10 mph78%29.98 "HgN/A
5:50 pm64 °FPartly sunny.10 mph78%29.98 "HgN/A
4:50 pm64 °FPartly sunny.10 mph78%29.98 "HgN/A
3:50 pm64 °FPartly sunny.12 mph78%30.01 "HgN/A
2:50 pm64 °FPartly sunny.14 mph78%30.01 "HgN/A
1:50 pm64 °FPartly sunny.12 mph78%30.04 "HgN/A
12:50 pm64 °FPartly sunny.10 mph78%30.04 "HgN/A
11:50 am63 °FPartly sunny.9 mph83%30.04 "HgN/A
10:50 am61 °FBroken clouds.8 mph88%30.04 "HgN/A
9:50 am61 °FPartly sunny.7 mph94%30.01 "HgN/A
8:50 am59 °FPartly sunny.9 mph100%30.01 "HgN/A
7:50 am59 °FPartly sunny.7 mph100%30.01 "HgN/A
6:50 am59 °FPassing clouds.8 mph100%30.01 "HgN/A
5:50 am59 °FPassing clouds.10 mph100%30.01 "HgN/A
4:50 am59 °FPassing clouds.10 mph100%30.01 "HgN/A
3:50 am59 °FPassing clouds.12 mph100%30.04 "HgN/A
2:50 am59 °FPassing clouds.15 mph100%30.04 "HgN/A
1:50 am59 °FPassing clouds.17 mph100%30.04 "HgN/A
Weather by CustomWeather, © 2017

See weather overviewHow to use our weather pages